Volver al catálogo

EUTE 7A

EUTE W3A

ActivoComunicacionesGEO
NORAD 28187·PAYLOAD·🇪🇺 EU

Lanzado Mar 15, 2004 desde Baikonur Cosmodrome

Loading…

TLE

ActualizadoSource: Space-Track

Época: Sep 14, 2026, 13:18 UTC

1 28187U 04008A   26257.55477748  .00000021  00000-0  00000-0 0  9990
2 28187   6.0546  70.8726 0006251 120.9650 258.9864  0.98806023 82240

Sigue EUTE 7A en tiempo real con AllMySat

Download on the App Store